Simultaneous Nadir Overpasses (SNOs) Predictions

Prediction of SNOs between AQUA and NPP Satellite Orbit:

Table of predicted SNOs for the next 14.0 days since TLE Epoch: 11/16/2019
Index Date (AQUA) Time (AQUA) Lat,Lon (AQUA) SZA (AQUA ) Date (NPP) Time (NPP) Lat,Lon (NPP) SZA (NPP ) Distance(km) Time Diff (sec)
1 11/17/2019 05:32:22 -75.06, 153.28 64.21 11/17/2019 05:31:17 -75.06, 153.27 64.15 0.25 65
2 11/17/2019 06:21:21 76.36, -35.24 114.44 11/17/2019 06:21:33 76.37, -35.19 114.42 1.32 12
3 11/19/2019 21:48:46 -75.30, -90.19 63.81 11/19/2019 21:48:06 -75.29, -90.27 63.75 2.43 40
4 11/19/2019 22:37:47 76.50, 81.10 114.94 11/19/2019 22:38:24 76.50, 81.06 114.92 1.17 37
5 11/22/2019 14:04:59 -76.02, 27.81 63.95 11/22/2019 14:04:43 -76.03, 27.87 63.95 1.75 16
6 11/22/2019 14:54:03 77.06,-161.04 114.95 11/22/2019 14:55:04 77.06,-160.93 114.87 2.87 61
7 11/25/2019 05:32:17 75.19, -26.37 117.50 11/25/2019 05:31:09 75.19, -26.34 117.56 0.87 68
8 11/25/2019 06:21:21 -76.34, 144.70 63.71 11/25/2019 06:21:30 -76.34, 144.73 63.72 0.75 9
9 11/27/2019 21:48:39 75.51, 90.41 117.70 11/27/2019 21:47:56 75.51, 90.40 117.75 0.44 43




NCC Satellite Simultaneous Nadir Overpasses (SNOs) Prediction Service
